Aérodrome :
LOGIN :

S'inscrire | Disclaimer

   EN    FR    IT 

 










Légende :    VFR   VFR Marginal   IFR   IFR Intensif   IFR Très Intensif
Visi : 
Plafond : 
>= 8 km
>= 3000ft
5 à 8 km
1000 à 3000 ft
1500m à 5 km
500 à 1000 ft
800 à 1500m
200 à 500 ft
< 800m
< 200 ft
Symboles :   Orages  Brouillard  Fortes neiges  Fortes précipitations  Vent > 20 kt
SIGMETs :   Divers  Orages  Givrage  Turbulence  Onde Orograph.  Cendres Volcan.







- Altitude de l'aérodrome : 80 ft
- Code IATA : LPL
- Voir les cartes d'approche


EGGP - Liverpool John Lennon

DERNIER METAR :
  • 201350Z 31011KT 280V350 9999 FEW025 16/09 Q1014

METARs EXPIRÉS :
  • 201320Z 30011KT 280V350 9999 FEW026 15/08 Q1015
  • 201250Z 32009KT 280V360 9999 FEW026 16/07 Q1015
  • 201220Z 30011KT 270V340 9999 SCT023 15/07 Q1015
  • 201150Z 30011KT 260V340 9999 SCT021 15/09 Q1014
  • 201120Z 27013KT 9999 SCT020 15/09 Q1014

TAF TAF EGGP
Valide du 20 à 12h jusqu'au 21 à 12h UTC


201057Z 2012/2112 30012KT 9999 FEW015 SCT025
PROB40
TEMPO 2100/2108 6000 BKN008
ATIS : +44 151 907 2000 (option 5 or ext 5150)
Météo : +44 871 750 5150
Pas de NOTAMs connus pour ce terrain.



MET'MAP, la Météo Aéronautique d'un coup d'oeil ! - Copyright ORBIFLY Décembre 2007 - Disclaimer

ORBIFLY MET'MAP TEAM :

Programmation & Développement : Alexandra Zaïnal
Conception & Développement : Baudouin d'Aumeries
Co-Programmation & Développement : Marc-Olivier Méhu
Soutien technique & logistique : Manuel Goepfert

Contact : metmap@orbifly.com




SOURCES & CREDITS :

   NOAA